Location: Heiligenberg
(48.5381°N, 7.3897°E)
Time: 08:09:42
(UTC+00:00)

Cosmos 1328 - Visible Passes

Search period start: 06 October 2022 00:00
Search period end: 16 October 2022 00:00
Orbit: 524 x 549 km, 82.5° (Epoch: 05 October)

Date Brightness Start Highest point End Pass type
(mag) Time Alt. Az. Time Alt. Az. Time Alt. Az.
06 Oct 6.3 20:01:00 10° N 20:01:53 16° N 20:01:53 16° N visible
07 Oct 6.2 19:52:31 10° N 19:53:35 18° N 19:53:35 18° N visible
08 Oct 6.0 19:44:02 10° N 19:45:19 20° N 19:45:19 20° N visible
09 Oct 5.8 19:35:33 10° N 19:37:03 22° N 19:37:03 22° N visible
10 Oct 5.6 19:27:03 10° N 19:28:48 25° N 19:28:48 25° N visible
11 Oct 5.3 19:18:32 10° N 19:20:34 29° N 19:20:34 29° N visible
12 Oct 4.9 19:10:02 10° N 19:12:23 35° N 19:12:23 35° N visible
13 Oct 4.5 19:01:30 10° N 19:04:15 43° N 19:04:15 43° N visible
14 Oct 4.1 18:52:58 10° N 18:56:09 55° N 18:56:09 55° N visible
15 Oct 3.6 18:44:26 10° N 18:48:08 71° NE 18:48:08 71° NE visible
15 Oct 7.1 20:23:26 10° WNW 20:23:36 10° WNW 20:23:36 10° WNW visible
